Tracking 19245 objects as of 14-Aug-2018
HD Live streaming from Space Station
objects crossing your sky now

FENGYUN 1C DEB

Track FENGYUN 1C DEB now!
10-day predictions


NORAD ID: 30468
Int'l Code: 1999-025AGF
Perigee: 812.9 km
Apogee: 937.0 km
Inclination: 99.1 °
Period: 102.3 minutes
Semi major axis: 7245 km
RCS: 0.042 m2 (small)
Launch date: May 10, 1999
Source: People's Republic of China (PRC)
Launch site: Taiyaun Space Center, China (TSC)

Note: This is SATELLITE DEBRIS
aabbcc
Your satellite tracking list
Your tracking list is empty




NASA's NSSDC Master Catalog

Two Line Element Set (TLE):
1 30468U 99025AGF 18225.71977755 +.00000239 +00000-0 +16361-3 0  9996
2 30468 099.1256 259.1809 0085633 015.2971 102.3104 14.07536839590381
Source of the keplerian elements: AFSPC